Weather History for Goodland, KS

Change the Weather History Date:

Monday, March 4, 2013

  Actual Average Record
Temperature  
Mean Temperature 33 °F 37 °F  
Max Temperature 45 °F 51 °F 80 °F (1921)
Min Temperature 20 °F 24 °F -15 °F (1960)
Degree Days  
Heating Degree Days 32 28  
Month to date heating degree days 101 113  
Since 1 July heating degree days 4388 4530  
Cooling Degree Days 0 0  
Month to date cooling degree days 0 0  
Year to date cooling degree days 0 0  
Moisture  
Dew Point 26 °F    
Average Humidity 67    
Maximum Humidity 92    
Minimum Humidity 41    
Precipitation  
Precipitation 0.04 in 0.03 in 0.76 in (1981)
Month to date precipitation 0.04 0.10  
Year to date precipitation 0.89 0.97  
Snow  
Snow 0.80 in 0.20 in - ()
Month to date snowfall 0.8 0.7  
Since 1 July snowfall 24.0 24.7  
Snow Depth 0.00 in    
Sea Level Pressure  
Sea Level Pressure 29.92 in    
Wind  
Wind Speed 17 mph (NNW)    
Max Wind Speed 28 mph    
Max Gust Speed 33 mph    
Visibility 7 miles    
Events Fog , Snow    
T = Trace of Precipitation, MM = Missing Value Source: NWS Daily Summary

Daily Weather History Graph

Daily Weather History Graph

Search for Another Location

Airport:

Trip Planner

Search our weather history database for the weather conditions in past years. The results will help you decide how hot, cold, wet, or windy it might be!

Date:

Astronomy

Mar. 04, 2013 Rise Set
Actual Time 6:14 AM MST 5:42 PM MST
Civil Twilight 5:47 AM MST 6:09 PM MST
Nautical Twilight 5:16 AM MST 6:40 PM MST
Astronomical Twilight 4:45 AM MST 7:11 PM MST
Moon 12:25 AM MST (3/4) 10:27 AM MST (3/4)
Length of Visible Light 12h 21m
Length of Day
11h 28m
Waning Gibbous, 51% of the Moon is Illuminated
Mar 4
Waning Gibbous
Mar 4
Last Quarter
Mar 11
New
Mar 19
First Quarter
Mar 27
Full

Hourly Weather History & Observations

Time (MST) Temp. Windchill Dew Point Humidity Pressure Visibility Wind Dir Wind Speed Gust Speed Precip Events Conditions
12:53 AM 39.0 °F 34.8 °F 30.9 °F 73% 29.62 in 10.0 mi WNW 5.8 mph - N/A   Partly Cloudy
1:53 AM 36.0 °F 32.1 °F 28.9 °F 76% 29.62 in 10.0 mi West 4.6 mph - N/A   Mostly Cloudy
2:53 AM 39.9 °F 34.5 °F 30.9 °F 70% 29.62 in 10.0 mi West 8.1 mph - N/A   Mostly Cloudy
3:53 AM 45.0 °F 38.2 °F 32.0 °F 60% 29.63 in 10.0 mi NNW 15.0 mph - N/A   Overcast
4:53 AM 37.9 °F 28.5 °F 30.0 °F 73% 29.70 in 10.0 mi North 17.3 mph - N/A   Clear
5:53 AM 35.1 °F 24.5 °F 27.0 °F 72% 29.75 in 10.0 mi North 18.4 mph - N/A   Clear
6:53 AM 33.1 °F 21.9 °F 25.0 °F 72% 29.78 in 10.0 mi North 18.4 mph - N/A   Partly Cloudy
7:53 AM 36.0 °F 24.7 °F 25.0 °F 64% 29.81 in 10.0 mi North 21.9 mph - N/A   Clear
8:53 AM 37.9 °F 27.3 °F 24.1 °F 57% 29.81 in 10.0 mi North 21.9 mph 31.1 mph N/A   Clear
9:53 AM 39.0 °F 28.3 °F 21.0 °F 49% 29.81 in 10.0 mi NNE 24.2 mph 29.9 mph N/A   Overcast
10:53 AM 43.0 °F 35.7 °F 21.0 °F 42% 29.82 in 10.0 mi NNE 15.0 mph 26.5 mph N/A   Overcast
11:53 AM 41.0 °F 32.2 °F 19.9 °F 43% 29.85 in 10.0 mi North 18.4 mph 25.3 mph N/A   Overcast
12:53 PM 35.1 °F 22.2 °F 28.0 °F 76% 29.88 in 10.0 mi North 27.6 mph 31.1 mph N/A   Overcast
1:36 PM 33.8 °F 24.3 °F 30.2 °F 87% 29.87 in 3.0 mi North 13.8 mph - 0.00 in Snow Light Snow
1:41 PM 32.0 °F 23.0 °F 30.2 °F 93% 29.87 in 1.8 mi North 11.5 mph - 0.00 in Snow Light Snow
1:53 PM 32.0 °F 23.6 °F 30.0 °F 92% 29.94 in 1.0 mi North 10.4 mph - 0.01 in Snow Light Snow
2:00 PM 32.0 °F 23.6 °F 30.2 °F 93% 29.90 in 0.8 mi North 10.4 mph - 0.00 in Snow Light Snow
2:08 PM 32.0 °F 22.5 °F 30.2 °F 93% 29.90 in 0.5 mi North 12.7 mph - 0.01 in Fog , Snow Snow
2:23 PM 30.2 °F 17.4 °F 28.4 °F 93% 29.91 in 0.5 mi North 20.7 mph - 0.02 in Fog , Snow Snow
2:40 PM 30.2 °F 16.5 °F 28.4 °F 93% 29.92 in 0.8 mi North 24.2 mph 29.9 mph 0.02 in Snow Light Snow
2:53 PM 30.9 °F 18.4 °F 28.9 °F 92% 29.98 in 0.8 mi North 20.7 mph - 0.02 in Snow Light Snow
3:09 PM 30.2 °F 17.8 °F 28.4 °F 93% 29.94 in 1.0 mi North 19.6 mph 25.3 mph 0.01 in Snow Light Snow
3:20 PM 30.2 °F 17.1 °F 28.4 °F 93% 29.95 in 2.5 mi North 21.9 mph 28.8 mph 0.01 in Snow Light Snow
3:41 PM 30.2 °F 18.1 °F 28.4 °F 93% 29.95 in 1.5 mi North 18.4 mph - 0.01 in Snow Light Snow
3:53 PM 30.9 °F 19.4 °F 28.9 °F 92% 30.00 in 1.2 mi North 17.3 mph - 0.01 in Snow Light Snow
4:18 PM 30.2 °F 19.8 °F 28.4 °F 93% 29.99 in 2.0 mi North 13.8 mph - 0.00 in Snow Light Snow
4:43 PM 30.2 °F 20.8 °F 28.4 °F 93% 30.00 in 4.0 mi North 11.5 mph - 0.00 in Snow Light Snow
4:53 PM 30.9 °F 21.2 °F 28.9 °F 92% 30.06 in 3.0 mi NNW 12.7 mph - 0.00 in Snow Light Snow
5:17 PM 30.2 °F 20.8 °F 28.4 °F 93% 30.04 in 10.0 mi NW 11.5 mph - 0.00 in   Overcast
5:53 PM 30.9 °F 19.8 °F 23.0 °F 72% 30.10 in 10.0 mi North 16.1 mph 29.9 mph 0.00 in   Overcast
6:53 PM 30.0 °F 19.1 °F 21.0 °F 69% 30.14 in 10.0 mi NNW 15.0 mph - N/A   Clear
7:53 PM 28.0 °F 15.7 °F 18.0 °F 66% 30.19 in 10.0 mi North 17.3 mph - N/A   Clear
8:53 PM 26.1 °F 11.6 °F 15.1 °F 63% 30.24 in 10.0 mi North 21.9 mph - N/A   Clear
9:53 PM 23.0 °F 8.3 °F 12.9 °F 65% 30.26 in 10.0 mi NNW 19.6 mph - N/A   Clear
10:53 PM 21.0 °F 6.6 °F 12.0 °F 68% 30.26 in 10.0 mi NNW 17.3 mph - N/A   Clear